[[{"header":{"parameterUnit":"m.s-1","parameterCategory":1,"la1":30.2991,"la2":30.254,"lo1":-89.0895,"lo2":-89.0444,"dy":0.0017,"dx":0.0017,"nx":28,"ny":28,"refTime":"2023-11-02T03:00:00:Z","depth":0,"parameterNumber":2,"parameterNumberName":"U-component_of_WINDS"},"data":[0,0,0,0,0,0,0,0,0,0,0,0,0,0,0,0,0,0,0,0,0,0,0,0,0,0,0,0,0,0,0,0,0,0,0,0,0,0,0,0,0,0,0,0,0,0,0,0,0,0,0,0,0,0,0,0,0,0,-3.0385,-3.0385,0,-3.0361,-3.0361,-3.0361,-3.0234,-3.0231,-3.0228,-3.0225,-3.0205,-3.0207,-3.0209,0,0,0,0,0,0,0,0,0,0,0,0,0,-3.0325,-3.0327,-3.0385,-3.0385,-3.0384,-3.0361,-3.0361,-3.0361,-3.0234,-3.0231,-3.0227,-3.0224,-3.0204,-3.0207,-3.021,0,0,0,0,0,0,0,0,0,0,0,0,0,-3.0331,-3.0327,-3.0385,-3.0318,-3.0312,-3.0361,-3.0361,-3.036,-3.0235,-3.0231,-3.0226,-3.0222,-3.0203,-3.0207,-3.021,-3.0322,0,0,-3.0221,-3.0222,0,0,0,0,0,0,0,0,-3.0331,-3.0334,-3.0328,-3.0323,-3.0316,-3.0296,-3.0332,-3.0348,-3.0236,-3.0265,-3.0225,-3.022,-3.0239,-3.0239,-3.0245,-3.0321,-3.0321,-3.0221,-3.0223,-3.0224,-3.0225,0,0,0,0,0,0,0,-3.0331,-3.0334,-3.0375,-3.0329,-3.0321,-3.0291,-3.0287,-3.0335,-3.0278,-3.0262,-3.0253,-3.0251,-3.0235,-3.0242,-3.0244,-3.032,-3.0221,-3.0224,-3.0226,-3.0227,-3.049,-3.0494,0,0,0,0,0,0,-3.0339,-3.0334,-3.0376,-3.0375,-3.0312,-3.0296,-3.0291,-3.0307,-3.0277,-3.0268,-3.0255,-3.0245,-3.0238,-3.024,-3.0242,-3.0373,-3.0224,-3.0228,-3.023,-3.0485,-3.0491,-3.0496,0,0,0,0,0,0,-3.0338,-3.0344,-3.0377,-3.0352,-3.0354,-3.0302,-3.032,-3.0309,-3.0316,-3.0272,-3.0261,-3.0273,-3.0235,-3.0238,-3.0304,-3.0371,-3.0229,-3.0232,-3.0479,-3.0487,-3.0493,-3.0636,0,0,0,0,0,0,-3.0337,-3.0345,-3.0386,-3.0354,-3.0356,-3.0438,-3.0324,-3.0312,-3.0322,-3.0309,-3.0285,-3.0277,-3.0231,-3.0299,-3.0307,-3.0373,-3.0235,-3.0473,-3.0482,-3.0491,-3.0625,-3.0647,-3.0666,0,0,0,0,0,-3.0335,-3.0427,-3.0388,-3.0394,-3.0406,-3.0442,-3.0443,-3.0387,-3.0327,-3.0369,-3.0341,-3.0278,-3.0362,-3.0307,-3.0315,-3.0383,-3.0468,-3.048,-3.049,-3.0616,-3.0643,-3.0666,0,0,0,0,0,0,-3.047,-3.0422,-3.0378,-3.0462,-3.0457,-3.0421,-3.0471,-3.0418,-3.043,-3.0418,-3.0349,-3.0345,-3.0422,-3.0408,-3.0348,-3.0491,-3.0404,-3.0418,-3.0497,-3.0523,-3.0543,-3.0546,-3.0238,0,0,0,0,0,-3.0509,-3.0541,-3.0498,-3.0576,-3.0575,-3.0525,-3.0538,-3.0495,-3.0488,-3.0485,-3.0462,-3.0458,-3.0483,-3.0502,-3.0523,-3.0622,-3.0616,-3.0673,-3.0693,-3.0711,-3.0724,-3.0777,-3.0802,-3.0532,-3.0532,-3.0532,0,0,-3.0591,-3.0568,-3.0593,-3.0603,-3.0593,-3.063,-3.0523,-3.0566,-3.0593,-3.0492,-3.0553,-3.0536,-3.0527,-3.0611,-3.0647,-3.0602,-3.0797,-3.0725,-3.0739,-3.0742,-3.0791,-3.0817,-3.0839,-3.054,-3.0538,-3.0537,0,0,-3.0758,-3.0744,-3.0808,-3.0801,-3.0788,-3.0754,-3.077,-3.0741,-3.0726,-3.0785,-3.0711,-3.0743,-3.0787,-3.0785,-3.079,-3.0957,-3.0901,-3.0966,-3.1075,-3.1128,-3.1149,-3.1167,-3.123,-3.1252,-3.0978,-3.0979,-3.0979,0,-3.0862,-3.0912,-3.0849,-3.0896,-3.0904,-3.0813,-3.0879,-3.0875,-3.0871,-3.0879,-3.0829,-3.0884,-3.0871,-3.0954,-3.0995,-3.1001,-3.1019,-3.0969,-3.1151,-3.1169,-3.1185,-3.1244,-3.1267,-3.0987,-3.0986,-3.0985,-3.0984,0,-3.1041,-3.1078,-3.1131,-3.1129,-3.1142,-3.1198,-3.1145,-3.1166,-3.1123,-3.1094,-3.1157,-3.1139,-3.1155,-3.1171,-3.1129,-3.1249,-3.1222,-3.1162,-3.1074,-3.122,-3.1274,-3.1296,-3.0999,-3.0996,-3.0993,-3.0991,0,0,-3.1294,-3.1255,-3.1276,-3.1274,-3.1254,-3.1281,-3.1335,-3.1349,-3.137,-3.137,-3.1415,-3.1455,-3.14,-3.1405,-3.1362,-3.1408,-3.1545,-3.1343,-3.1342,-3.1383,-3.1678,-3.1725,-3.1752,-3.1506,-3.151,-3.1513,-3.168,0,-3.1456,-3.1544,-3.1489,-3.1586,-3.162,-3.1534,-3.1581,-3.1574,-3.1549,-3.1575,-3.1547,-3.1578,-3.1501,-3.1505,-3.1546,-3.152,-3.1604,-3.1506,-3.155,-3.1552,-3.1557,-3.178,-3.1829,-3.1987,-3.17,-3.1704,-3.1706,0,-3.1657,-3.1666,-3.1766,-3.174,-3.1752,-3.1795,-3.1805,-3.183,-3.1822,-3.18,-3.1807,-3.1753,-3.1805,-3.1717,-3.1789,-3.1724,-3.1738,-3.1728,-3.1733,-3.1737,-3.164,-3.1792,-3.2035,-3.206,-3.1738,-3.1736,-3.1733,0,-3.1835,-3.1871,-3.1936,-3.1937,-3.1907,-3.194,-3.1929,-3.1916,-3.1929,-3.1938,-3.1946,-3.1962,-3.1971,-3.1985,-3.1937,-3.1877,-3.2017,-3.1924,-3.2003,-3.2005,-3.2038,-3.2037,-3.229,-3.2044,-3.2043,-3.2043,-3.2042,0,-3.2023,-3.2089,-3.2015,-3.2056,-3.2127,-3.2063,-3.2136,-3.2116,-3.2106,-3.2142,-3.2068,-3.2105,-3.2038,-3.2068,-3.2031,-3.2098,-3.2102,-3.2088,-3.2078,-3.2096,-3.2098,-3.2106,-3.2095,-3.2049,-3.2048,-3.2046,-3.2045,0,-3.2234,-3.2187,-3.2253,-3.2219,-3.2212,-3.2267,-3.2239,-3.2276,-3.2245,-3.2293,-3.23,-3.2253,-3.2284,-3.2237,-3.2264,-3.2239,-3.2332,-3.2304,-3.2335,-3.2328,-3.241,-3.2404,-3.2679,-3.2713,-3.2443,-3.2445,-3.2448,0,-3.2358,-3.2406,-3.2378,-3.2397,-3.239,-3.2421,-3.2434,-3.2373,-3.239,-3.2384,-3.2423,-3.2447,-3.2464,-3.2519,-3.2489,-3.2509,-3.2482,-3.2577,-3.2485,-3.2503,-3.2487,-3.2486,-3.2491,-3.2597,-3.26,-3.2603,-3.2605,0,-3.2585,-3.2559,-3.2579,-3.2593,-3.261,-3.2618,-3.262,-3.264,-3.2576,-3.2599,-3.2629,-3.2643,-3.2669,-3.2696,-3.2709,-3.27,-3.2644,-3.2634,-3.2654,-3.2674,-3.2691,-3.2685,-3.2389,-3.2629,-3.2626,-3.2624,-3.2623,-3.2622,-3.2757,-3.2797,-3.2783,-3.2809,-3.2804,-3.2809,-3.2842,-3.2816,-3.284,-3.2856,-3.2819,-3.286,-3.2851,-3.2862,-3.2859,-3.2891,-3.285,-3.2878,-3.2886,-3.2894,-3.2908,-3.2684,-3.2893,-3.2892,-3.2892,-3.2891,-3.2891,0,-3.2982,-3.2969,-3.2993,-3.2999,-3.302,-3.2962,-3.2962,-3.2984,-3.3021,-3.3017,-3.3035,-3.3071,-3.3097,-3.3068,-3.3089,-3.3121,-3.3096,-3.3129,-3.3127,-3.3126,-3.2943,-3.2925,-3.3149,-3.3149,-3.3149,-3.3149,-3.3149,-3.3149,-3.3101,-3.3166,-3.3139,-3.3202,-3.3188,-3.3226,-3.3232,-3.3236,-3.3233,-3.3277,-3.3297,-3.3278,-3.3265,-3.3284,-3.3306,-3.3297,-3.3309,-3.3352,-3.3335,-3.3164,-3.3139,-3.3115,-3.3098,-3.3355,-3.3355,-3.3516,-3.3517,-3.3519]},{"header":{"parameterUnit":"m.s-1","parameterCategory":1,"la1":30.2991,"la2":30.254,"lo1":-89.0895,"lo2":-89.0444,"dy":0.0017,"dx":0.0017,"nx":28,"ny":28,"refTime":"2023-11-02T03:00:00:Z","depth":0,"parameterNumber":3,"parameterNumberName":"V-component_of_WINDS"},"data":[0,0,0,0,0,0,0,0,0,0,0,0,0,0,0,0,0,0,0,0,0,0,0,0,0,0,0,0,0,0,0,0,0,0,0,0,0,0,0,0,0,0,0,0,0,0,0,0,0,0,0,0,0,0,0,0,0,0,-1.1223,-1.1223,0,-1.131,-1.1311,-1.1312,-1.1324,-1.1323,-1.1322,-1.1322,-1.1412,-1.1416,-1.1419,0,0,0,0,0,0,0,0,0,0,0,0,0,-1.1066,-1.1069,-1.1222,-1.1224,-1.1225,-1.131,-1.1311,-1.1312,-1.1324,-1.1323,-1.1322,-1.1321,-1.1411,-1.1415,-1.1419,0,0,0,0,0,0,0,0,0,0,0,0,0,-1.1142,-1.107,-1.1222,-1.1241,-1.1243,-1.1309,-1.1311,-1.1312,-1.1324,-1.1323,-1.1322,-1.1321,-1.141,-1.1415,-1.1419,-1.1473,0,0,-1.1434,-1.1436,0,0,0,0,0,0,0,0,-1.1138,-1.1148,-1.1237,-1.124,-1.1243,-1.1305,-1.1289,-1.1366,-1.1325,-1.1294,-1.1322,-1.132,-1.1378,-1.1385,-1.1404,-1.1478,-1.1481,-1.1434,-1.1437,-1.1439,-1.1441,0,0,0,0,0,0,0,-1.1133,-1.1144,-1.1257,-1.1238,-1.1242,-1.1245,-1.1254,-1.1304,-1.1342,-1.1296,-1.1297,-1.1308,-1.1379,-1.14,-1.1406,-1.1483,-1.1434,-1.1439,-1.1441,-1.1443,-1.1605,-1.1606,0,0,0,0,0,0,-1.1124,-1.114,-1.1254,-1.126,-1.1186,-1.1249,-1.1259,-1.1286,-1.1341,-1.1348,-1.1309,-1.1308,-1.1392,-1.1401,-1.141,-1.1477,-1.1439,-1.1444,-1.1447,-1.1603,-1.1605,-1.1607,0,0,0,0,0,0,-1.112,-1.1134,-1.1251,-1.12,-1.1215,-1.1253,-1.1283,-1.1289,-1.1309,-1.135,-1.1357,-1.1323,-1.1391,-1.1403,-1.1457,-1.148,-1.1446,-1.145,-1.1602,-1.1604,-1.1606,-1.1612,0,0,0,0,0,0,-1.1116,-1.1133,-1.1154,-1.12,-1.1218,-1.1297,-1.1284,-1.1291,-1.1317,-1.1317,-1.1365,-1.1372,-1.1391,-1.145,-1.1462,-1.1486,-1.1454,-1.16,-1.1603,-1.1605,-1.161,-1.1614,-1.1617,0,0,0,0,0,-1.111,-1.1152,-1.1155,-1.1168,-1.1245,-1.1298,-1.1308,-1.1329,-1.1319,-1.134,-1.1367,-1.1371,-1.1475,-1.1456,-1.1469,-1.1495,-1.1599,-1.1602,-1.1605,-1.1608,-1.1613,-1.1617,0,0,0,0,0,0,-1.1108,-1.1159,-1.1162,-1.122,-1.1255,-1.13,-1.1328,-1.1334,-1.1373,-1.1371,-1.1395,-1.1406,-1.146,-1.1483,-1.146,-1.155,-1.1536,-1.1542,-1.1534,-1.1539,-1.1543,-1.1537,-1.1458,0,0,0,0,0,-1.1113,-1.1153,-1.1195,-1.1242,-1.1259,-1.129,-1.1315,-1.1328,-1.1365,-1.138,-1.141,-1.1446,-1.1487,-1.1514,-1.1554,-1.1612,-1.1623,-1.1637,-1.164,-1.1643,-1.1649,-1.1682,-1.1689,-1.1617,-1.1617,-1.1617,0,0,-1.1127,-1.1159,-1.1183,-1.1242,-1.1271,-1.1311,-1.1303,-1.1346,-1.1376,-1.1386,-1.144,-1.1463,-1.1505,-1.1562,-1.1588,-1.1582,-1.1671,-1.1647,-1.1649,-1.1654,-1.1686,-1.1693,-1.1699,-1.162,-1.1619,-1.1619,0,0,-1.1172,-1.12,-1.1243,-1.1271,-1.1314,-1.1334,-1.1344,-1.1388,-1.1404,-1.1458,-1.1466,-1.1502,-1.1573,-1.1602,-1.1627,-1.1681,-1.1686,-1.1693,-1.1714,-1.1746,-1.1751,-1.1757,-1.1777,-1.1784,-1.1698,-1.1698,-1.1698,0,-1.1183,-1.1244,-1.1264,-1.1307,-1.1333,-1.1342,-1.1386,-1.1412,-1.1466,-1.1484,-1.1476,-1.1564,-1.1593,-1.1657,-1.167,-1.1689,-1.1702,-1.1689,-1.1749,-1.1754,-1.1759,-1.1779,-1.1787,-1.1699,-1.1699,-1.1699,-1.1699,0,-1.1256,-1.1298,-1.1327,-1.1379,-1.1408,-1.1451,-1.1477,-1.1504,-1.1514,-1.1535,-1.1589,-1.1624,-1.1671,-1.1687,-1.1697,-1.1752,-1.1747,-1.1744,-1.1731,-1.1767,-1.1786,-1.1794,-1.17,-1.1699,-1.1699,-1.1699,0,0,-1.1305,-1.1365,-1.1376,-1.1399,-1.1446,-1.1479,-1.1522,-1.1567,-1.1591,-1.1627,-1.1664,-1.1722,-1.1719,-1.1746,-1.176,-1.1787,-1.183,-1.1781,-1.1782,-1.179,-1.1894,-1.1897,-1.1906,-1.1832,-1.1834,-1.1835,-1.1891,0,-1.1356,-1.1433,-1.1452,-1.1518,-1.1557,-1.1566,-1.1603,-1.1636,-1.1657,-1.1693,-1.1715,-1.1757,-1.1749,-1.1765,-1.1793,-1.1819,-1.1851,-1.1814,-1.1868,-1.187,-1.186,-1.1916,-1.192,-1.1971,-1.1898,-1.1899,-1.19,0,-1.1428,-1.1465,-1.1535,-1.1577,-1.1594,-1.1627,-1.167,-1.1705,-1.1742,-1.1755,-1.1784,-1.1795,-1.184,-1.1822,-1.1885,-1.186,-1.1883,-1.1898,-1.1901,-1.1908,-1.1889,-1.1927,-1.1988,-1.1996,-1.1912,-1.1911,-1.191,0,-1.1458,-1.1525,-1.1576,-1.1595,-1.1645,-1.1668,-1.169,-1.1726,-1.1752,-1.1789,-1.1807,-1.1849,-1.1872,-1.1905,-1.1926,-1.1911,-1.1988,-1.1972,-1.2001,-1.2,-1.2018,-1.2017,-1.2086,-1.2029,-1.2029,-1.2029,-1.2029,0,-1.1515,-1.1558,-1.159,-1.1622,-1.167,-1.1689,-1.1737,-1.1758,-1.179,-1.1826,-1.1835,-1.1869,-1.1894,-1.1931,-1.1948,-1.1998,-1.2008,-1.202,-1.2025,-1.2021,-1.2019,-1.2038,-1.2035,-1.2031,-1.2031,-1.203,-1.203,0,-1.1558,-1.1581,-1.1637,-1.1678,-1.169,-1.1724,-1.1759,-1.179,-1.181,-1.1855,-1.1867,-1.1898,-1.1942,-1.1966,-1.2021,-1.2032,-1.2089,-1.209,-1.2076,-1.2079,-1.2106,-1.2104,-1.2191,-1.2204,-1.2137,-1.2137,-1.2138,0,-1.1594,-1.1627,-1.1672,-1.1696,-1.1718,-1.1758,-1.1784,-1.1804,-1.1832,-1.1876,-1.1902,-1.1946,-1.1983,-1.2052,-1.208,-1.2122,-1.2126,-1.2153,-1.2133,-1.2128,-1.2128,-1.2127,-1.2131,-1.2158,-1.2158,-1.2159,-1.2159,0,-1.1656,-1.1665,-1.1703,-1.1744,-1.1776,-1.1809,-1.1843,-1.1862,-1.1888,-1.1918,-1.1963,-1.1991,-1.2047,-1.2091,-1.2135,-1.2158,-1.2163,-1.2165,-1.2174,-1.2172,-1.2163,-1.217,-1.2088,-1.2164,-1.2163,-1.2163,-1.2163,-1.2163,-1.1698,-1.1727,-1.1764,-1.1805,-1.1832,-1.1863,-1.1894,-1.1917,-1.1954,-1.2001,-1.2011,-1.2058,-1.2094,-1.2154,-1.2177,-1.2215,-1.221,-1.2223,-1.2226,-1.223,-1.2231,-1.2155,-1.2223,-1.2223,-1.2222,-1.2222,-1.2222,0,-1.1761,-1.1785,-1.1822,-1.1869,-1.1901,-1.1902,-1.1939,-1.1966,-1.2008,-1.204,-1.2076,-1.2127,-1.217,-1.22,-1.2243,-1.2268,-1.2271,-1.2279,-1.2278,-1.2283,-1.2233,-1.2222,-1.2275,-1.2275,-1.2275,-1.2275,-1.2275,-1.2275,-1.1799,-1.1849,-1.1863,-1.1927,-1.195,-1.1997,-1.2018,-1.2046,-1.2072,-1.2129,-1.2164,-1.2183,-1.2215,-1.2261,-1.23,-1.2307,-1.2324,-1.2331,-1.2339,-1.2292,-1.2287,-1.2282,-1.2271,-1.2334,-1.2334,-1.2387,-1.2387,-1.2388]}]]